Weather in Pittsburgh

United States     40°26′26″N   79°59′47″W
temp.,
°C
wind,
m/s
gust,
m/s
humid.,
%
clouds,
%
prec.,
mm/h
press.,
hPa
HPBL,
m
17 may, mon
mon1723:00+11e1179100 0.0 102411
02:00+10e1182100 0.0 102410
05:00+9ese1186100 0.0 102511
08:00+11ese1176100 0.0 1026147
11:00+17se2257100 0.0 1025685
14:00+20s2246100 0.0 10241629
17:00+20ssw1146100 0.0 10231499
20:00+16sw0068100 0.0 102411
18 may, tue
tue1823:00+13ne1176100 0.0 102516
02:00+12e1183100 0.0 102515
05:00+11ese1188100 0.0 102515
08:00+13ene2378100 0.0 1027158
11:00+20ese2355100 0.0 1026722
14:00+23se224292 0.0 10251612
17:00+24s1140100 0.0 10241723
20:00+19nnw0065100 0.0 102411
19 may, wed
wed1923:00+15ene1176100 0.0 102511
02:00+14ene1180100 0.0 102516
05:00+12ese119172 0.0 102623
08:00+15sse1379100 0.0 1027182
11:00+22s1260100 0.0 1027674
14:00+25ssw2348100 0.0 10261579
17:00+25sw2252100 0.1 10251409
20:00+19wsw1188100 0.6 102511
20 may, thu
thu2023:00+17sse0093100 0.2 102611
02:00+16ese1195100 0.2 102611
05:00+15se119589 0.0 102711
08:00+17sse129099 0.0 1029106
11:00+24sse115982 0.0 1028662
14:00+27sw224630 0.0 10261743
17:00+27sw2246100 0.0 10261582
20:00+22n1177100 0.0 102611
21 may, fri
fri2123:00+19sse118880 0.2 102711
02:00+18s1190100 0.2 102711
05:00+17se1191100 0.0 102712
08:00+19ssw1282100 0.0 1029152
11:00+26wsw225878 0.0 1028800
14:00+27wnw445363 0.4 10271727
17:00+27nw3555100 0.3 10251522
20:00+21nw2690100 1.1 1026146